Regional Weather Roundup
Issued by NWS

Home | Current Version | Previous Version | Text Only | Print | Product List | Glossary Off
Versions: 1 2 3 4 5 6 7 8 9 10 11 12 13 14 15 16 17 18 19 20 21 22 23 24 25 26 27 28 29 30 31 32 33 34 35 36 37 38 39 40 41 42 43 44 45 46 47 48 49 50

000
ASUS43 KLMK 181902
RWRKY
KENTUCKY REGIONAL WEATHER ROUNDUP
NATIONAL WEATHER SERVICE LOUISVILLE KY
300 PM EDT FRI APR 18 2014

NOTE "FAIR" INDICATES FEW OR NO CLOUDS BELOW 12,000 FEET
WITH NO SIGNIFICANT WEATHER AND/OR OBSTRUCTIONS TO VISIBILITY.

KYZ001>023-026-027-061>063-070>075-182000-
WESTERN AND SOUTH CENTRAL KENTUCKY

CITY           SKY/WX    TMP DP  RH WIND       PRES   REMARKS
PADUCAH        SUNNY     74  41  30 CALM      30.24F
HENDERSON      SUNNY     70  43  37 CALM      30.25F
OWENSBORO      PTSUNNY   71  39  31 SW3       30.26F
HOPKINSVILLE   PTSUNNY   68  50  52 N6        30.25F
BOWLING GREEN  PTSUNNY   68  43  40 CALM      30.26F
GLASGOW        NOT AVBL
$$

KYZ024-025-028>034-038-045-046-053-182000-
NORTH CENTRAL KENTUCKY

CITY           SKY/WX    TMP DP  RH WIND       PRES   REMARKS
LOUISVILLE/SDF CLOUDY    73  39  29 VRB3      30.26F
LOUISVILLE/LOU MOSUNNY   72  37  28 CALM      30.27F
FORT KNOX      PTSUNNY   68  40  34 CALM      30.25F
$$

KYZ035>037-039>044-047>052-055>060-089>105-182000-
NORTHEAST KENTUCKY

CITY           SKY/WX    TMP DP  RH WIND       PRES   REMARKS
LEXINGTON      PTSUNNY   68  40  35 CALM      30.28F
COVINGTON      PTSUNNY   69  37  30 VRB3      30.27F
FRANKFORT      PTSUNNY   67  37  33 VRB6      30.27F
$$

KYZ054-064>069-076>088-106>120-182000-
SOUTHEAST KENTUCKY

CITY           SKY/WX    TMP DP  RH WIND       PRES   REMARKS
JACKSON        CLOUDY    67  34  29 CALM      30.27F
LONDON         CLOUDY    67  39  35 VRB5      30.28F
SOMERSET       NOT AVBL
MIDDLESBORO    NOT AVBL
MONTICELLO     CLOUDY    67  45  45 E6        30.29F
$$




USA.gov is the U.S. government's official web portal to all federal, state and local government web resources and services.